Flag for Canada Weather past 2 weeks in Kenora, Ontario, Canada

Now
72 °F

Partly sunny.


Feels Like: 75 °F
Forecast: N/A
Wind: 13 mph from Southwest

Location: Kenora

Current Time: Jul 2, 2015 at 5:36:40 PM

Latest Report: Jul 2, 2015 at 4:00 PM


Visibility: 10 mi

Pressure: 29.89 "Hg

Humidity: 69%

Dew point: 61 °F

Location of KenoraLocation

Historic Weather in Kenora — Graph

°F

Kenora temperature yesterday

Maximum temperature yesterday: 75 °F (at 4:00 PM)
Minimum temperature yesterday: 57 °F (at 4:00 AM)
Average temperature yesterday: 67 °F

Past Weeks' High & Low Weather Summary

 TemperatureHumidityPressure
High81 °F (Jun 26, 2:00 PM)100% (Jun 19, 5:00 PM)30.19 "Hg (Jun 19, 5:00 PM)
Low45 °F (Jun 18, 4:00 AM)34% (Jun 18, 6:00 PM)29.69 "Hg (Jun 22, 8:00 AM)
Average65 °F72%29.94 "Hg
* Reported Jun 17 3:00 PM — Jul 2 3:00 PM, Kenora, Weather by CustomWeather, © 2015

Note: Actual official high and low records may vary slightly from our data, if they occured in-between our weather recording intervals... More about our weather records

Advertising

Kenora weather history for previous 24 hours

 ConditionsComfort  
Time TempWeatherWind HumidityBarometerVisibility
3:00 PM
Thu, Jul 2
73 °FPartly sunny.13 mph65%29.90 "Hg10 mi
2:00 PM73 °FBroken clouds.13 mph65%29.91 "Hg10 mi
1:00 PM72 °FPartly sunny.14 mph73%29.92 "Hg8 mi
12:00 PM72 °FBroken clouds.13 mph69%29.94 "Hg10 mi
11:00 AM72 °FPartly sunny.10 mph73%29.95 "Hg8 mi
10:00 AM70 °FPartly sunny.13 mph78%29.95 "Hg8 mi
9:00 AM66 °FPartly sunny.8 mph88%29.95 "Hg10 mi
8:00 AM64 °FPartly sunny.7 mph88%29.95 "Hg8 mi
7:00 AM64 °FPartly sunny.7 mph94%29.96 "Hg8 mi
6:00 AM63 °FScattered clouds.5 mph100%29.96 "Hg8 mi
5:00 AM63 °FPassing clouds.3 mph88%29.95 "Hg10 mi
4:00 AM66 °FPassing clouds.3 mph78%29.95 "Hg12 mi
3:00 AM68 °FPassing clouds.6 mph69%29.94 "Hg12 mi
2:00 AM66 °FPassing clouds.5 mph78%29.95 "Hg12 mi
1:00 AM68 °FPassing clouds.3 mph73%29.95 "Hg15 mi
12:00 AM68 °FPartly cloudy.5 mph73%29.96 "Hg12 mi
11:00 PM
Wed, Jul 1
68 °FMostly cloudy.5 mph69%29.96 "Hg15 mi
10:00 PM70 °FMostly cloudy.6 mph64%29.96 "Hg15 mi
9:00 PM70 °FMostly cloudy.5 mph69%29.95 "Hg12 mi
8:00 PM72 °FMostly cloudy.5 mph61%29.96 "Hg12 mi
7:00 PM73 °FPartly sunny.8 mph57%29.95 "Hg12 mi
6:00 PM73 °FPartly sunny.9 mph57%29.95 "Hg12 mi
5:00 PM75 °FOvercast.9 mph54%29.95 "Hg15 mi
Weather by CustomWeather, © 2015

See weather overviewHow to use our weather pages